Date,TemperatureHighF,TemperatureAvgF,TemperatureLowF,DewpointHighF,DewpointAvgF,DewpointLowF,HumidityHigh,HumidityAvg,HumidityLow,PressureMaxIn,PressureMinIn,WindSpeedMaxMPH,WindSpeedAvgMPH,GustSpeedMaxMPH,PrecipitationSumIn
2013-1-1,15.6,3.6,-8.2,11.9,-1.5,-11.7,87,79,67,30.34,30.15,15,2,15,0.00
2013-1-2,19.0,14.3,9.0,13.0,9.6,5.4,88,82,70,30.15,30.02,12,2,12,0.00
2013-1-3,19.3,14.4,7.5,16.8,10.6,3.4,91,84,78,30.26,30.11,18,5,18,0.00
2013-1-4,28.7,19.8,9.6,17.7,13.6,6.4,89,77,62,30.20,30.06,15,4,15,0.00
2013-1-5,25.1,16.6,9.7,17.6,12.6,7.0,90,84,72,30.19,29.90,13,2,13,0.00
2013-1-6,22.6,18.0,12.0,17.2,12.6,6.8,86,79,66,30.26,29.99,14,3,14,0.00
2013-1-7,35.2,26.5,13.4,25.4,20.0,8.1,90,76,67,30.18,29.94,21,4,21,0.00
2013-1-8,36.3,27.1,14.3,30.0,22.4,11.9,93,83,70,30.04,29.81,25,4,25,0.00
2013-1-9,35.4,30.1,22.7,26.3,22.6,18.3,85,74,57,30.40,29.91,25,7,26,0.00
2013-1-10,38.5,31.0,22.3,32.0,22.9,18.3,94,73,45,30.43,29.80,16,4,17,0.00
2013-1-11,42.9,36.2,33.1,41.0,35.2,31.8,97,96,93,29.82,29.42,16,4,16,0.00
2013-1-12,43.9,21.8,8.6,41.5,15.9,1.8,93,78,69,30.09,29.41,34,10,34,0.00
2013-1-13,10.5,6.9,4.1,4.7,1.5,-0.2,84,78,69,30.31,30.04,20,6,20,0.00
2013-1-14,13.4,7.0,2.2,7.1,2.5,-1.3,87,82,73,30.46,30.30,17,3,17,0.00
2013-1-15,29.7,18.4,4.0,17.4,10.9,0.7,88,74,57,30.41,29.93,21,4,21,0.00
2013-1-16,33.9,25.7,15.3,28.8,17.8,3.1,89,72,49,30.21,29.70,20,6,20,0.00
2013-1-17,16.4,11.7,7.1,7.7,2.4,-2.2,85,66,55,30.44,30.21,15,4,16,0.00
2013-1-18,41.8,26.8,9.2,31.1,20.7,5.0,88,78,64,30.40,29.76,17,4,17,0.00
2013-1-19,38.9,25.2,3.7,31.3,18.9,-4.7,89,77,55,30.15,29.66,40,9,50,0.00
2013-1-20,6.8,2.7,-1.4,-1.9,-4.9,-7.3,79,70,56,30.42,30.15,22,7,22,0.00
2013-1-21,0.8,-6.9,-10.5,-6.2,-14.9,-19.4,77,67,59,30.39,30.27,25,8,25,0.00
2013-1-22,0.3,-5.9,-12.5,-7.4,-13.3,-18.4,77,70,61,30.50,30.35,14,3,14,0.00
2013-1-23,14.1,4.1,-5.5,6.9,-3.1,-14.8,85,72,54,30.65,30.18,30,4,30,0.00
2013-1-24,9.6,0.2,-7.9,3.1,-8.1,-14.9,77,67,61,30.76,30.32,15,2,15,0.00
2013-1-25,18.1,12.5,5.5,13.3,7.0,0.1,86,78,68,30.32,29.98,23,5,23,0.00
2013-1-26,22.4,11.5,-2.3,11.7,3.5,-6.2,86,71,58,30.45,30.23,16,2,16,0.00
2013-1-27,29.2,25.9,20.8,27.9,20.1,11.4,95,79,62,30.26,29.84,14,3,15,0.00
2013-1-28,31.3,29.9,28.6,30.3,28.6,27.6,96,95,92,29.95,29.68,14,2,14,0.00
2013-1-29,33.5,32.3,28.8,31.9,29.9,24.0,97,91,82,29.68,29.51,18,4,18,0.00
2013-1-30,28.8,18.7,10.6,24.2,13.9,3.8,90,81,73,29.71,29.55,20,7,20,0.00
2013-1-31,10.5,3.4,-4.9,6.1,-2.5,-11.6,84,76,69,30.28,29.71,26,10,26,0.00